Voltar ao catálogo

CZ-6A DEB

AtivoSSO
NORAD 55559·DEBRIS·🇨🇳 China

Lançado Nov 11, 2022 de Taiyuan Satellite Launch Center

Loading…

Próximas Passagens (próximas 24 horas)

TLE

AtualizadoSource: Space-Track

Época: Sep 13, 2026, 23:11 UTC

1 55559U 22151ZH  26256.96635087  .00003374  00000-0  14733-2 0  9992
2 55559  98.8338 263.6198 0077444   9.4194 350.8415 14.22947161196782

Acompanhe CZ-6A DEB em tempo real com AllMySat

Download on the App Store